User: anonymous
Location: Unspecified
(0.0000°N, 0.0000°E)
Time: 17:54:40
(UTC+02:00)
Language:

SeaSat 1 - Orbit

View from above orbital plane
View from above orbital plane
View from above satellite
View from above satellite

Ground track
Ground track

The orbit data is extracted from the following two-line orbital elements,

1 10967U 78064A   14212.76594341  .00000082  00000-0  65108-4 0  3456
2 10967 107.9916 264.1521 0002888 274.7510 222.7293 14.43049554894907
Epoch (UTC): 31 July 2014 18:22:57
Eccentricity: 0.0002888
inclination: 107.9916°
perigee height: 746 km
apogee height: 750 km
right ascension of ascending node: 264.1521°
argument of perigee: 274.7510°
revolutions per day: 14.43049554
mean anomaly at epoch: 222.7293°
orbit number at epoch: 89490

The dashed part of the orbit path shows where the satellite is in the earth's shadow,  

DLR